Regional Weather Roundup
Issued by NWS

Home | Current Version | Previous Version | Graphics & Text | Print | Product List | Glossary On
Versions: 1 2 3 4 5 6 7 8 9 10 11 12 13 14 15 16 17 18 19 20 21 22 23 24 25 26 27 28 29 30 31 32 33 34 35 36 37 38 39 40 41 42 43 44 45 46 47 48 49 50
000
ASUS43 KDTX 210710
RWRMI
MICHIGAN HOURLY REGIONAL WEATHER ROUNDUP
NATIONAL WEATHER SERVICE DETROIT/PONTIAC MI
200 AM EST TUE FEB 21 2017

NOTE: "FAIR" INDICATES FEW OR NO CLOUDS BELOW 12,000 FEET WITH NO
SIGNIFICANT WEATHER AND/OR OBSTRUCTION TO VISIBILITY.

MIZ047>049-052>055-059>063-066>070-074>076-081>083-210800-
SOUTHEAST LOWER MICHIGAN

CITY           SKY/WX    TMP DP  RH WIND       PRES   REMARKS
ADRIAN         CLOUDY    36  33  89 E3        30.06F
ALMA           CLOUDY    40  32  72 SE5       29.99F
ANN ARBOR      CLOUDY    37  30  75 E3        30.05F
BAD AXE        CLOUDY    38  28  69 SE12      30.04F WCI  30
CARO           CLOUDY    39  29  67 SE13      30.01F WCI  32
DETROIT CITY   CLOUDY    37  31  78 SE6       30.08F WCI  32
DETROIT        CLOUDY    39  31  72 E3        30.07F
FLINT          CLOUDY    40  30  67 SE14      30.03F WCI  32
GROSSE ILE     CLOUDY    39  32  75 E3        30.05F
HILLSDALE      CLOUDY    37  32  81 SE9       30.01F WCI  31
HOWELL         CLOUDY    40  31  70 SE12      30.02F WCI  32

CITY           SKY/WX    TMP DP  RH WIND       PRES   REMARKS
JACKSON        PTCLDY    40  31  70 S9        30.03S WCI  34
LAMBERTVILLE   CLOUDY    38  33  84 E3        30.05F
LANSING        CLOUDY    43  31  62 S12       30.01F
LAPEER         FAIR      39  29  69 SE9       30.04F WCI  32
MASON          CLOUDY    40  33  76 S8        30.02S WCI  35
MONROE         PTCLDY    37  33  88 E9        30.05F WCI  30
MT. CLEMENS    CLOUDY    36  31  83 SE7       30.05F WCI  30
PONTIAC        CLOUDY    38  29  70 SE10      30.04F WCI  31
PORT HOPE        N/A     37  28  70 SE17G25   30.01F WCI  27
PORT HURON     CLOUDY    37  27  65 SE8       30.07F WCI  31
TRI CITIES     CLOUDY    40  30  67 S7        30.02F
MIDLAND        CLOUDY    41  29  61 S3        30.01F
TROY           CLOUDY    38  28  65 E7        30.08F WCI  33
SAGINAW HB     CLOUDY    39  30  70 S7        30.02S WCI  34
$$
MIZ043>046-050>051-056>058-064>065-071>073-077>080-210800-
SOUTHWEST LOWER MICHIGAN

CITY           SKY/WX    TMP DP  RH WIND       PRES   REMARKS
BATTLE CREEK   MOCLDY    47  36  65 S8        29.99F
BENTON HARBOR  CLOUDY    52  40  63 SE12      29.93F
BIG RAPIDS     CLOUDY    44  33  64 SE8       29.93F
COLDWATER      CLOUDY    44  35  69 SE7       30.00F
FREMONT        FAIR      49  34  56 SE9G16    29.91F
HOLLAND        CLOUDY    51  39  63 S14       29.93F
GRAND RAPIDS   CLOUDY    47  35  63 SE12      29.95F
IONIA          MOCLDY    41  33  72 SE8       29.98F
KALAMAZOO      CLOUDY    46  35  65 S5        29.99S
LUDINGTON      CLOUDY    53  40  59 S13       29.87S
MARSHALL       MOCLDY    43  34  69 SE6       29.99F
MOUNT PLEASANT CLOUDY    39  32  76 SE7       29.97F WCI  34
MUSKEGON       CLOUDY    52  38  58 SE10      29.92F
SOUTH HAVEN    CLOUDY    52  40  64 S10G17    29.94F
$$
MIZ016>042-210800-
NORTHERN LOWER MICHIGAN

CITY           SKY/WX    TMP DP  RH WIND       PRES   REMARKS
ALPENA         MOCLDY    38  33  82 SE14      29.98F WCI  30
BEAVER ISLAND  DRIZZLE   41  37  86 SE14G21   29.83F
BELLAIRE       CLOUDY    46  33  62 S10G21    29.89F
CADILLAC       CLOUDY    44  33  66 S9G16     29.91F
CHARLEVOIX     CLOUDY    47  33  57 S10G16    29.89F
FRANKFORT      RAIN      48  41  77 S6        29.87S
GAYLORD        CLOUDY    42  30  62 S16       29.89F
GRAYLING       CLOUDY    42  32  67 SE7       29.94F
HARBOR SPRINGS CLOUDY    46  33  59 SW6       29.89S
HOUGHTON LAKE  CLOUDY    40  30  67 S12       29.96F WCI  33
MANISTEE       CLOUDY    54  38  54 SE14G21   29.85F
OSCODA         CLOUDY    38  31  78 S6        30.02F WCI  33
PELLSTON       CLOUDY    40  30  67 SW5       29.90F
ROGERS CITY    CLOUDY    39  32  77 SE12      29.95F WCI  31
TRAVERSE CITY  CLOUDY    50  34  54 VRB6      29.86F
$$
MIZ007>008-015-210800-
EASTERN UPPER MICHIGAN

CITY           SKY/WX    TMP DP  RH WIND       PRES   REMARKS
KINROSS        LGT RAIN  36  33  89 SE20G26   29.91F WCI  25
MACKINAC ISLAN CLOUDY    35  33  93 E8        29.91F WCI  29
NEWBERRY       LGT RAIN  35  35  96 SE15      29.82F WCI  26
S. S. MARIE    FRZ RAIN  34  29  82 E14G22    29.92F WCI  25
MUNISING         N/A     39  37  92 S9G20     29.74F WCI  33
$$
MIZ004>006-011>014-085-210800-
CENTRAL UPPER MICHIGAN

CITY           SKY/WX    TMP DP  RH WIND       PRES   REMARKS
MANISTIQUE     CLOUDY    37  36  98 E14       29.80F WCI  28
ESCANABA       LGT RAIN  40  38  93 S8        29.76F WCI  34
MENOMINEE      LGT RAIN  47  44  90 SW14      29.77F
SAWYER-GWINN   CLOUDY    39  38  97 S15       29.71F FOG     WCI  31
$$
MIZ001>003-009>011-084-210800-
WESTERN UPPER MICHIGAN

CITY           SKY/WX    TMP DP  RH WIND       PRES   REMARKS
IRON MOUNTAIN  FOG       44  41  89 S8        29.69F VSB 1/2
HOUGHTON       CLOUDY    45  42  89 S15       29.58F
COPPER HARBOR    N/A     41  39  93 SW13G23   29.58F
IRONWOOD       LGT RAIN  49  48  97 SW12      29.62R FOG
$$

ABBREVIATIONS USED IN REMARKS
   TC - TEMPERATURE IN CELSIUS
  WCI - WIND CHILL INDEX
   HX - HEAT INDEX
  VSB - VISIBILITY





USA.gov is the U.S. government's official web portal to all federal, state and local government web resources and services.